owner,sensor,date,latitude,longitude,vertical_datum,sea_water_practical_salinity,qcFlag 
SCCF RECON,ioos:station:SCCF:11:1,2016-09-01T00:00:00Z,26.4679,-82.0631,1.74,31.4,1111122 
SCCF RECON,ioos:station:SCCF:11:1,2016-09-01T01:00:00Z,26.4679,-82.0631,1.822,30.57,1111122 
SCCF RECON,ioos:station:SCCF:11:1,2016-09-01T02:00:00Z,26.4679,-82.0631,2.064,33.78,1111122 
SCCF RECON,ioos:station:SCCF:11:1,2016-09-01T03:00:00Z,26.4679,-82.0631,2.164,33.48,1111122 
SCCF RECON,ioos:station:SCCF:11:1,2016-09-01T04:00:00Z,26.4679,-82.0631,2.18,33.6,1111122 
SCCF RECON,ioos:station:SCCF:11:1,2016-09-01T05:00:00Z,26.4679,-82.0631,2.24,33.74,1111122 
SCCF RECON,ioos:station:SCCF:11:1,2016-09-01T06:00:00Z,26.4679,-82.0631,2.28,33.77,1111122 
SCCF RECON,ioos:station:SCCF:11:1,2016-09-01T07:00:00Z,26.4679,-82.0631,2.26,33.84,1111122 
SCCF RECON,ioos:station:SCCF:11:1,2016-09-01T08:00:00Z,26.4679,-82.0631,2.22,33.86,1111122 
SCCF RECON,ioos:station:SCCF:11:1,2016-09-01T09:00:00Z,26.4679,-82.0631,2.103,32.26,1111122 
SCCF RECON,ioos:station:SCCF:11:1,2016-09-01T10:00:00Z,26.4679,-82.0631,2.0,30.52,1111122 
SCCF RECON,ioos:station:SCCF:11:1,2016-09-01T11:00:00Z,26.4679,-82.0631,1.96,30.59,1111122 
SCCF RECON,ioos:station:SCCF:11:1,2016-09-01T12:00:00Z,26.4679,-82.0631,1.93,31.81,1111122 
SCCF RECON,ioos:station:SCCF:11:1,2016-09-01T13:00:00Z,26.4679,-82.0631,2.03,33.91,1111122 
SCCF RECON,ioos:station:SCCF:11:1,2016-09-01T14:00:00Z,26.4679,-82.0631,2.176,33.87,1111122 
SCCF RECON,ioos:station:SCCF:11:1,2016-09-01T15:00:00Z,26.4679,-82.0631,2.311,33.88,1111122 
SCCF RECON,ioos:station:SCCF:11:1,2016-09-01T16:00:00Z,26.4679,-82.0631,2.42,33.82,1111122 
SCCF RECON,ioos:station:SCCF:11:1,2016-09-01T17:00:00Z,26.4679,-82.0631,2.48,33.82,1111122 
SCCF RECON,ioos:station:SCCF:11:1,2016-09-01T18:00:00Z,26.4679,-82.0631,2.523,33.82,1111122 
SCCF RECON,ioos:station:SCCF:11:1,2016-09-01T19:00:00Z,26.4679,-82.0631,2.524,33.77,1111122 
SCCF RECON,ioos:station:SCCF:11:1,2016-09-01T20:00:00Z,26.4679,-82.0631,2.461,33.78,1111122 
SCCF RECON,ioos:station:SCCF:11:1,2016-09-01T21:00:00Z,26.4679,-82.0631,2.34,32.42,1111122 
SCCF RECON,ioos:station:SCCF:11:1,2016-09-01T22:00:00Z,26.4679,-82.0631,2.228,32.79,1111122 
SCCF RECON,ioos:station:SCCF:11:1,2016-09-01T23:00:00Z,26.4679,-82.0631,2.1,33.08,1111122 
SCCF RECON,ioos:station:SCCF:11:1,2016-09-02T00:00:00Z,26.4679,-82.0631,1.939,32.8,1111122 
SCCF RECON,ioos:station:SCCF:11:1,2016-09-02T01:00:00Z,26.4679,-82.0631,1.96,32.15,1111122 
SCCF RECON,ioos:station:SCCF:11:1,2016-09-02T02:00:00Z,26.4679,-82.0631,2.07,33.28,1111122 
SCCF RECON,ioos:station:SCCF:11:1,2016-09-02T03:00:00Z,26.4679,-82.0631,2.23,33.42,1111122 
SCCF RECON,ioos:station:SCCF:11:1,2016-09-02T04:00:00Z,26.4679,-82.0631,2.31,33.49,1111122 
SCCF RECON,ioos:station:SCCF:11:1,2016-09-02T05:00:00Z,26.4679,-82.0631,2.39,33.61,1111122 
SCCF RECON,ioos:station:SCCF:11:1,2016-09-02T06:00:00Z,26.4679,-82.0631,2.41,33.62,1111122 
SCCF RECON,ioos:station:SCCF:11:1,2016-09-02T07:00:00Z,26.4679,-82.0631,2.421,33.64,1111122 
SCCF RECON,ioos:station:SCCF:11:1,2016-09-02T08:00:00Z,26.4679,-82.0631,2.392,33.6,1111122 
SCCF RECON,ioos:station:SCCF:11:1,2016-09-02T09:00:00Z,26.4679,-82.0631,2.27,32.11,1111122 
SCCF RECON,ioos:station:SCCF:11:1,2016-09-02T10:00:00Z,26.4679,-82.0631,2.15,32.58,1111122 
SCCF RECON,ioos:station:SCCF:11:1,2016-09-02T11:00:00Z,26.4679,-82.0631,2.079,32.41,1111122 
SCCF RECON,ioos:station:SCCF:11:1,2016-09-02T12:00:00Z,26.4679,-82.0631,2.03,32.1,1111122 
SCCF RECON,ioos:station:SCCF:11:1,2016-09-02T13:00:00Z,26.4679,-82.0631,2.03,31.94,1111122 
SCCF RECON,ioos:station:SCCF:11:1,2016-09-02T14:00:00Z,26.4679,-82.0631,2.12,32.65,1111122 
SCCF RECON,ioos:station:SCCF:11:1,2016-09-02T15:00:00Z,26.4679,-82.0631,2.244,34.07,1111122 
SCCF RECON,ioos:station:SCCF:11:1,2016-09-02T16:00:00Z,26.4679,-82.0631,2.419,34.0,1111122 
SCCF RECON,ioos:station:SCCF:11:1,2016-09-02T17:00:00Z,26.4679,-82.0631,2.451,33.4,1111122 
SCCF RECON,ioos:station:SCCF:11:1,2016-09-02T18:00:00Z,26.4679,-82.0631,2.341,32.01,1111122 
SCCF RECON,ioos:station:SCCF:11:1,2016-09-02T19:00:00Z,26.4679,-82.0631,2.321,31.17,1111122 
SCCF RECON,ioos:station:SCCF:11:1,2016-09-02T20:00:00Z,26.4679,-82.0631,2.224,31.9,1111122 
SCCF RECON,ioos:station:SCCF:11:1,2016-09-02T21:00:00Z,26.4679,-82.0631,2.1,30.93,1111122 
SCCF RECON,ioos:station:SCCF:11:1,2016-09-02T22:00:00Z,26.4679,-82.0631,1.95,30.69,1111122 
SCCF RECON,ioos:station:SCCF:11:1,2016-09-02T23:00:00Z,26.4679,-82.0631,1.84,30.22,1111122 
SCCF RECON,ioos:station:SCCF:11:1,2016-09-03T00:00:00Z,26.4679,-82.0631,1.77,29.93,1111122 
SCCF RECON,ioos:station:SCCF:11:1,2016-09-03T01:00:00Z,26.4679,-82.0631,1.7,29.99,1111122 
SCCF RECON,ioos:station:SCCF:11:1,2016-09-03T02:00:00Z,26.4679,-82.0631,1.73,31.44,1111122 
SCCF RECON,ioos:station:SCCF:11:1,2016-09-03T03:00:00Z,26.4679,-82.0631,1.871,32.58,1111122 
SCCF RECON,ioos:station:SCCF:11:1,2016-09-03T04:00:00Z,26.4679,-82.0631,2.05,33.04,1111122 
SCCF RECON,ioos:station:SCCF:11:1,2016-09-03T05:00:00Z,26.4679,-82.0631,2.144,32.32,1111122 
SCCF RECON,ioos:station:SCCF:11:1,2016-09-03T06:00:00Z,26.4679,-82.0631,2.257,31.16,1111122 
SCCF RECON,ioos:station:SCCF:11:1,2016-09-03T07:00:00Z,26.4679,-82.0631,2.27,31.39,1111122 
SCCF RECON,ioos:station:SCCF:11:1,2016-09-03T08:00:00Z,26.4679,-82.0631,2.14,31.2,1111122 
SCCF RECON,ioos:station:SCCF:11:1,2016-09-03T09:00:00Z,26.4679,-82.0631,2.0,31.76,1111122 
SCCF RECON,ioos:station:SCCF:11:1,2016-09-03T10:00:00Z,26.4679,-82.0631,1.91,31.3,1111122 
SCCF RECON,ioos:station:SCCF:11:1,2016-09-03T11:00:00Z,26.4679,-82.0631,1.81,30.89,1111122 
SCCF RECON,ioos:station:SCCF:11:1,2016-09-03T12:00:00Z,26.4679,-82.0631,1.71,30.29,1111122 
SCCF RECON,ioos:station:SCCF:11:1,2016-09-03T13:00:00Z,26.4679,-82.0631,1.66,30.61,1111122 
SCCF RECON,ioos:station:SCCF:11:1,2016-09-03T14:00:00Z,26.4679,-82.0631,1.72,31.35,1111122 
SCCF RECON,ioos:station:SCCF:11:1,2016-09-03T15:00:00Z,26.4679,-82.0631,1.89,30.99,1111122 
SCCF RECON,ioos:station:SCCF:11:1,2016-09-03T16:00:00Z,26.4679,-82.0631,2.062,29.44,1111122 
SCCF RECON,ioos:station:SCCF:11:1,2016-09-03T17:00:00Z,26.4679,-82.0631,2.16,28.95,1111122 
SCCF RECON,ioos:station:SCCF:11:1,2016-09-03T18:00:00Z,26.4679,-82.0631,2.24,29.99,1111122 
SCCF RECON,ioos:station:SCCF:11:1,2016-09-03T19:00:00Z,26.4679,-82.0631,2.284,30.22,1111122 
SCCF RECON,ioos:station:SCCF:11:1,2016-09-03T20:00:00Z,26.4679,-82.0631,2.24,30.65,1111122 
SCCF RECON,ioos:station:SCCF:11:1,2016-09-03T21:00:00Z,26.4679,-82.0631,2.14,29.93,1111122 
SCCF RECON,ioos:station:SCCF:11:1,2016-09-03T22:00:00Z,26.4679,-82.0631,2.01,30.14,1111122 
SCCF RECON,ioos:station:SCCF:11:1,2016-09-03T23:00:00Z,26.4679,-82.0631,1.91,30.22,1111122 
SCCF RECON,ioos:station:SCCF:11:1,2016-09-04T00:00:00Z,26.4679,-82.0631,1.8,30.21,1111122 
SCCF RECON,ioos:station:SCCF:11:1,2016-09-04T01:00:00Z,26.4679,-82.0631,1.74,30.19,1111122 
SCCF RECON,ioos:station:SCCF:11:1,2016-09-04T02:00:00Z,26.4679,-82.0631,1.76,30.25,1111122 
SCCF RECON,ioos:station:SCCF:11:1,2016-09-04T03:00:00Z,26.4679,-82.0631,1.86,29.43,1111122 
SCCF RECON,ioos:station:SCCF:11:1,2016-09-04T04:00:00Z,26.4679,-82.0631,2.0,31.15,1111122 
SCCF RECON,ioos:station:SCCF:11:1,2016-09-04T05:00:00Z,26.4679,-82.0631,2.13,30.16,1111122 
SCCF RECON,ioos:station:SCCF:11:1,2016-09-04T06:00:00Z,26.4679,-82.0631,2.2,28.59,1111122 
SCCF RECON,ioos:station:SCCF:11:1,2016-09-04T07:00:00Z,26.4679,-82.0631,2.222,29.03,1111122 
SCCF RECON,ioos:station:SCCF:11:1,2016-09-04T08:00:00Z,26.4679,-82.0631,2.2,29.15,1111122 
SCCF RECON,ioos:station:SCCF:11:1,2016-09-04T09:00:00Z,26.4679,-82.0631,2.12,29.9,1111122 
SCCF RECON,ioos:station:SCCF:11:1,2016-09-04T10:00:00Z,26.4679,-82.0631,1.99,29.72,1111122 
SCCF RECON,ioos:station:SCCF:11:1,2016-09-04T11:00:00Z,26.4679,-82.0631,1.88,30.24,1111122 
SCCF RECON,ioos:station:SCCF:11:1,2016-09-04T12:00:00Z,26.4679,-82.0631,1.782,30.38,1111122 
SCCF RECON,ioos:station:SCCF:11:1,2016-09-04T13:00:00Z,26.4679,-82.0631,1.699,30.49,1111122 
SCCF RECON,ioos:station:SCCF:11:1,2016-09-04T14:00:00Z,26.4679,-82.0631,1.649,30.56,1111122 
SCCF RECON,ioos:station:SCCF:11:1,2016-09-04T15:00:00Z,26.4679,-82.0631,1.72,30.63,1111122 
SCCF RECON,ioos:station:SCCF:11:1,2016-09-04T16:00:00Z,26.4679,-82.0631,1.9,28.99,1111122 
SCCF RECON,ioos:station:SCCF:11:1,2016-09-04T17:00:00Z,26.4679,-82.0631,2.059,28.11,1111122 
SCCF RECON,ioos:station:SCCF:11:1,2016-09-04T18:00:00Z,26.4679,-82.0631,2.15,26.46,1111122 
SCCF RECON,ioos:station:SCCF:11:1,2016-09-04T19:00:00Z,26.4679,-82.0631,2.21,28.77,1111122 
SCCF RECON,ioos:station:SCCF:11:1,2016-09-04T20:00:00Z,26.4679,-82.0631,2.191,28.98,1111122 
SCCF RECON,ioos:station:SCCF:11:1,2016-09-04T21:00:00Z,26.4679,-82.0631,2.11,27.63,1111122 
SCCF RECON,ioos:station:SCCF:11:1,2016-09-04T22:00:00Z,26.4679,-82.0631,2.028,27.81,1111122 
SCCF RECON,ioos:station:SCCF:11:1,2016-09-04T23:00:00Z,26.4679,-82.0631,1.93,27.87,1111122 
SCCF RECON,ioos:station:SCCF:11:1,2016-09-05T00:00:00Z,26.4679,-82.0631,1.864,27.81,1111122 
SCCF RECON,ioos:station:SCCF:11:1,2016-09-05T01:00:00Z,26.4679,-82.0631,1.81,27.66,1111122 
SCCF RECON,ioos:station:SCCF:11:1,2016-09-05T02:00:00Z,26.4679,-82.0631,1.77,28.73,1111122 
SCCF RECON,ioos:station:SCCF:11:1,2016-09-05T03:00:00Z,26.4679,-82.0631,1.809,28.35,1111122 
SCCF RECON,ioos:station:SCCF:11:1,2016-09-05T04:00:00Z,26.4679,-82.0631,1.9,28.68,1111122 
SCCF RECON,ioos:station:SCCF:11:1,2016-09-05T05:00:00Z,26.4679,-82.0631,2.01,28.63,1111122 
SCCF RECON,ioos:station:SCCF:11:1,2016-09-05T06:00:00Z,26.4679,-82.0631,2.11,26.03,1111122 
SCCF RECON,ioos:station:SCCF:11:1,2016-09-05T07:00:00Z,26.4679,-82.0631,2.18,26.94,1111122 
SCCF RECON,ioos:station:SCCF:11:1,2016-09-05T08:00:00Z,26.4679,-82.0631,2.19,25.93,1111122 
SCCF RECON,ioos:station:SCCF:11:1,2016-09-05T09:00:00Z,26.4679,-82.0631,2.147,26.99,1111122 
SCCF RECON,ioos:station:SCCF:11:1,2016-09-05T10:00:00Z,26.4679,-82.0631,2.07,28.3,1111122 
SCCF RECON,ioos:station:SCCF:11:1,2016-09-05T11:00:00Z,26.4679,-82.0631,1.97,28.72,1111122 
SCCF RECON,ioos:station:SCCF:11:1,2016-09-05T12:00:00Z,26.4679,-82.0631,1.89,28.76,1111122 
SCCF RECON,ioos:station:SCCF:11:1,2016-09-05T13:00:00Z,26.4679,-82.0631,1.78,29.36,1111122 
SCCF RECON,ioos:station:SCCF:11:1,2016-09-05T14:00:00Z,26.4679,-82.0631,1.72,29.16,1111122 
SCCF RECON,ioos:station:SCCF:11:1,2016-09-05T15:00:00Z,26.4679,-82.0631,1.724,29.14,1111122 
SCCF RECON,ioos:station:SCCF:11:1,2016-09-05T16:00:00Z,26.4679,-82.0631,1.79,28.73,1111122 
SCCF RECON,ioos:station:SCCF:11:1,2016-09-05T17:00:00Z,26.4679,-82.0631,1.92,27.74,1111122 
SCCF RECON,ioos:station:SCCF:11:1,2016-09-05T18:00:00Z,26.4679,-82.0631,2.05,26.91,1111122 
SCCF RECON,ioos:station:SCCF:11:1,2016-09-05T19:00:00Z,26.4679,-82.0631,2.14,25.86,1111122 
SCCF RECON,ioos:station:SCCF:11:1,2016-09-05T20:00:00Z,26.4679,-82.0631,2.177,27.47,1111122 
SCCF RECON,ioos:station:SCCF:11:1,2016-09-05T21:00:00Z,26.4679,-82.0631,2.16,27.49,1111122 
SCCF RECON,ioos:station:SCCF:11:1,2016-09-05T22:00:00Z,26.4679,-82.0631,2.13,28.13,1111122 
SCCF RECON,ioos:station:SCCF:11:1,2016-09-05T23:00:00Z,26.4679,-82.0631,2.07,27.38,1111122 
SCCF RECON,ioos:station:SCCF:11:1,2016-09-06T00:00:00Z,26.4679,-82.0631,1.96,28.15,1111122 
SCCF RECON,ioos:station:SCCF:11:1,2016-09-06T01:00:00Z,26.4679,-82.0631,1.89,28.38,1111122 
SCCF RECON,ioos:station:SCCF:11:1,2016-09-06T02:00:00Z,26.4679,-82.0631,1.83,29.01,1111122 
SCCF RECON,ioos:station:SCCF:11:1,2016-09-06T03:00:00Z,26.4679,-82.0631,1.76,28.83,1111122 
SCCF RECON,ioos:station:SCCF:11:1,2016-09-06T04:00:00Z,26.4679,-82.0631,1.809,28.62,1111122 
SCCF RECON,ioos:station:SCCF:11:1,2016-09-06T05:00:00Z,26.4679,-82.0631,1.958,27.63,1111122 
SCCF RECON,ioos:station:SCCF:11:1,2016-09-06T06:00:00Z,26.4679,-82.0631,2.091,24.78,1111122 
SCCF RECON,ioos:station:SCCF:11:1,2016-09-06T07:00:00Z,26.4679,-82.0631,2.194,24.14,1111122 
SCCF RECON,ioos:station:SCCF:11:1,2016-09-06T08:00:00Z,26.4679,-82.0631,2.261,24.26,1111122 
SCCF RECON,ioos:station:SCCF:11:1,2016-09-06T09:00:00Z,26.4679,-82.0631,2.25,24.78,1111122 
SCCF RECON,ioos:station:SCCF:11:1,2016-09-06T10:00:00Z,26.4679,-82.0631,2.15,26.43,1111122 
SCCF RECON,ioos:station:SCCF:11:1,2016-09-06T11:00:00Z,26.4679,-82.0631,2.049,26.96,1111122 
SCCF RECON,ioos:station:SCCF:11:1,2016-09-06T12:00:00Z,26.4679,-82.0631,1.98,27.68,1111122 
SCCF RECON,ioos:station:SCCF:11:1,2016-09-06T13:00:00Z,26.4679,-82.0631,1.92,28.14,1111122 
SCCF RECON,ioos:station:SCCF:11:1,2016-09-06T14:00:00Z,26.4679,-82.0631,1.828,27.76,1111122 
SCCF RECON,ioos:station:SCCF:11:1,2016-09-06T15:00:00Z,26.4679,-82.0631,1.79,27.75,1111122 
SCCF RECON,ioos:station:SCCF:11:1,2016-09-06T16:00:00Z,26.4679,-82.0631,1.81,26.37,1111122 
SCCF RECON,ioos:station:SCCF:11:1,2016-09-06T17:00:00Z,26.4679,-82.0631,1.9,26.3,1111122 
SCCF RECON,ioos:station:SCCF:11:1,2016-09-06T18:00:00Z,26.4679,-82.0631,2.0,25.24,1111122 
SCCF RECON,ioos:station:SCCF:11:1,2016-09-06T19:00:00Z,26.4679,-82.0631,2.1,25.75,1111122 
SCCF RECON,ioos:station:SCCF:11:1,2016-09-06T20:00:00Z,26.4679,-82.0631,2.17,26.87,1111122 
SCCF RECON,ioos:station:SCCF:11:1,2016-09-06T21:00:00Z,26.4679,-82.0631,2.16,27.09,1111122 
SCCF RECON,ioos:station:SCCF:11:1,2016-09-06T22:00:00Z,26.4679,-82.0631,2.121,26.66,1111122 
SCCF RECON,ioos:station:SCCF:11:1,2016-09-06T23:00:00Z,26.4679,-82.0631,2.064,26.4,1111122 
SCCF RECON,ioos:station:SCCF:11:1,2016-09-07T00:00:00Z,26.4679,-82.0631,2.02,27.02,1111122 
SCCF RECON,ioos:station:SCCF:11:1,2016-09-07T01:00:00Z,26.4679,-82.0631,1.97,27.01,1111122 
SCCF RECON,ioos:station:SCCF:11:1,2016-09-07T02:00:00Z,26.4679,-82.0631,1.914,27.61,1111122 
SCCF RECON,ioos:station:SCCF:11:1,2016-09-07T03:00:00Z,26.4679,-82.0631,1.869,27.42,1111122 
SCCF RECON,ioos:station:SCCF:11:1,2016-09-07T04:00:00Z,26.4679,-82.0631,1.87,27.63,1111122 
SCCF RECON,ioos:station:SCCF:11:1,2016-09-07T05:00:00Z,26.4679,-82.0631,1.94,26.41,1111122 
SCCF RECON,ioos:station:SCCF:11:1,2016-09-07T06:00:00Z,26.4679,-82.0631,2.05,23.81,1111122 
SCCF RECON,ioos:station:SCCF:11:1,2016-09-07T07:00:00Z,26.4679,-82.0631,2.12,23.49,1111122 
SCCF RECON,ioos:station:SCCF:11:1,2016-09-07T08:00:00Z,26.4679,-82.0631,2.2,25.87,1111122 
SCCF RECON,ioos:station:SCCF:11:1,2016-09-07T09:00:00Z,26.4679,-82.0631,2.2,25.97,1111122 
SCCF RECON,ioos:station:SCCF:11:1,2016-09-07T10:00:00Z,26.4679,-82.0631,2.17,26.43,1111122 
SCCF RECON,ioos:station:SCCF:11:1,2016-09-07T11:00:00Z,26.4679,-82.0631,2.12,26.51,1111122 
SCCF RECON,ioos:station:SCCF:11:1,2016-09-07T12:00:00Z,26.4679,-82.0631,2.067,26.72,1111122 
SCCF RECON,ioos:station:SCCF:11:1,2016-09-07T13:00:00Z,26.4679,-82.0631,1.992,27.1,1111122 
SCCF RECON,ioos:station:SCCF:11:1,2016-09-07T14:00:00Z,26.4679,-82.0631,1.89,26.06,1111122 
SCCF RECON,ioos:station:SCCF:11:1,2016-09-07T15:00:00Z,26.4679,-82.0631,1.82,26.77,1111122 
SCCF RECON,ioos:station:SCCF:11:1,2016-09-07T16:00:00Z,26.4679,-82.0631,1.78,26.66,1111122 
SCCF RECON,ioos:station:SCCF:11:1,2016-09-07T17:00:00Z,26.4679,-82.0631,1.787,27.09,1111122 
SCCF RECON,ioos:station:SCCF:11:1,2016-09-07T18:00:00Z,26.4679,-82.0631,1.85,25.25,1111122 
SCCF RECON,ioos:station:SCCF:11:1,2016-09-07T19:00:00Z,26.4679,-82.0631,1.94,22.64,1111122 
SCCF RECON,ioos:station:SCCF:11:1,2016-09-07T20:00:00Z,26.4679,-82.0631,2.05,23.85,1111122 
SCCF RECON,ioos:station:SCCF:11:1,2016-09-07T21:00:00Z,26.4679,-82.0631,2.08,25.96,1111122 
SCCF RECON,ioos:station:SCCF:11:1,2016-09-07T22:00:00Z,26.4679,-82.0631,2.04,26.43,1111122 
SCCF RECON,ioos:station:SCCF:11:1,2016-09-07T23:00:00Z,26.4679,-82.0631,2.01,26.14,1111122 
SCCF RECON,ioos:station:SCCF:11:1,2016-09-08T00:00:00Z,26.4679,-82.0631,1.99,26.29,1111122 
SCCF RECON,ioos:station:SCCF:11:1,2016-09-08T01:00:00Z,26.4679,-82.0631,1.96,26.5,1111122 
SCCF RECON,ioos:station:SCCF:11:1,2016-09-08T02:00:00Z,26.4679,-82.0631,1.92,26.34,1111122 
SCCF RECON,ioos:station:SCCF:11:1,2016-09-08T03:00:00Z,26.4679,-82.0631,1.89,25.48,1111122 
SCCF RECON,ioos:station:SCCF:11:1,2016-09-08T04:00:00Z,26.4679,-82.0631,1.9,25.67,1111122 
SCCF RECON,ioos:station:SCCF:11:1,2016-09-08T05:00:00Z,26.4679,-82.0631,1.95,26.4,1111122 
SCCF RECON,ioos:station:SCCF:11:1,2016-09-08T06:00:00Z,26.4679,-82.0631,1.99,24.44,1111122 
SCCF RECON,ioos:station:SCCF:11:1,2016-09-08T07:00:00Z,26.4679,-82.0631,2.04,23.82,1111122 
SCCF RECON,ioos:station:SCCF:11:1,2016-09-08T08:00:00Z,26.4679,-82.0631,2.113,26.21,1111122 
SCCF RECON,ioos:station:SCCF:11:1,2016-09-08T09:00:00Z,26.4679,-82.0631,2.15,23.47,1111122 
SCCF RECON,ioos:station:SCCF:11:1,2016-09-08T10:00:00Z,26.4679,-82.0631,2.17,25.8,1111122 
SCCF RECON,ioos:station:SCCF:11:1,2016-09-08T11:00:00Z,26.4679,-82.0631,2.13,26.91,1111122 
SCCF RECON,ioos:station:SCCF:11:1,2016-09-08T12:00:00Z,26.4679,-82.0631,2.079,24.5,1111122 
SCCF RECON,ioos:station:SCCF:11:1,2016-09-08T13:00:00Z,26.4679,-82.0631,2.0,24.84,1111122 
SCCF RECON,ioos:station:SCCF:11:1,2016-09-08T14:00:00Z,26.4679,-82.0631,1.89,24.45,1111122 
SCCF RECON,ioos:station:SCCF:11:1,2016-09-08T15:00:00Z,26.4679,-82.0631,1.808,24.15,1111122 
SCCF RECON,ioos:station:SCCF:11:1,2016-09-08T16:00:00Z,26.4679,-82.0631,1.73,24.32,1111122 
SCCF RECON,ioos:station:SCCF:11:1,2016-09-08T17:00:00Z,26.4679,-82.0631,1.692,24.76,1111122 
SCCF RECON,ioos:station:SCCF:11:1,2016-09-08T18:00:00Z,26.4679,-82.0631,1.72,25.08,1111122 
SCCF RECON,ioos:station:SCCF:11:1,2016-09-08T19:00:00Z,26.4679,-82.0631,1.79,22.53,1111122 
SCCF RECON,ioos:station:SCCF:11:1,2016-09-08T20:00:00Z,26.4679,-82.0631,1.915,19.64,1111122 
SCCF RECON,ioos:station:SCCF:11:1,2016-09-08T21:00:00Z,26.4679,-82.0631,1.94,20.19,1111122 
SCCF RECON,ioos:station:SCCF:11:1,2016-09-08T22:00:00Z,26.4679,-82.0631,1.98,21.85,1111122 
SCCF RECON,ioos:station:SCCF:11:1,2016-09-08T23:00:00Z,26.4679,-82.0631,1.97,22.68,1111122 
SCCF RECON,ioos:station:SCCF:11:1,2016-09-09T00:00:00Z,26.4679,-82.0631,2.01,23.54,1111122 
SCCF RECON,ioos:station:SCCF:11:1,2016-09-09T01:00:00Z,26.4679,-82.0631,2.01,23.82,1111122 
SCCF RECON,ioos:station:SCCF:11:1,2016-09-09T02:00:00Z,26.4679,-82.0631,2.04,24.17,1111122 
SCCF RECON,ioos:station:SCCF:11:1,2016-09-09T03:00:00Z,26.4679,-82.0631,2.03,24.38,1111122 
SCCF RECON,ioos:station:SCCF:11:1,2016-09-09T04:00:00Z,26.4679,-82.0631,2.01,24.35,1111122 
SCCF RECON,ioos:station:SCCF:11:1,2016-09-09T05:00:00Z,26.4679,-82.0631,2.019,24.98,1111122 
SCCF RECON,ioos:station:SCCF:11:1,2016-09-09T06:00:00Z,26.4679,-82.0631,1.97,24.59,1111122 
SCCF RECON,ioos:station:SCCF:11:1,2016-09-09T07:00:00Z,26.4679,-82.0631,1.99,24.89,1111122 
SCCF RECON,ioos:station:SCCF:11:1,2016-09-09T08:00:00Z,26.4679,-82.0631,2.053,23.28,1111122 
SCCF RECON,ioos:station:SCCF:11:1,2016-09-09T09:00:00Z,26.4679,-82.0631,2.144,24.66,1111122 
SCCF RECON,ioos:station:SCCF:11:1,2016-09-09T10:00:00Z,26.4679,-82.0631,2.17,24.58,1111122 
SCCF RECON,ioos:station:SCCF:11:1,2016-09-09T11:00:00Z,26.4679,-82.0631,2.16,25.89,1111122 
SCCF RECON,ioos:station:SCCF:11:1,2016-09-09T12:00:00Z,26.4679,-82.0631,2.15,25.25,1111122 
SCCF RECON,ioos:station:SCCF:11:1,2016-09-09T13:00:00Z,26.4679,-82.0631,2.092,24.6,1111122 
SCCF RECON,ioos:station:SCCF:11:1,2016-09-09T14:00:00Z,26.4679,-82.0631,2.04,24.29,1111122 
SCCF RECON,ioos:station:SCCF:11:1,2016-09-09T15:00:00Z,26.4679,-82.0631,1.989,24.62,1111122 
SCCF RECON,ioos:station:SCCF:11:1,2016-09-09T16:00:00Z,26.4679,-82.0631,1.902,24.36,1111122 
SCCF RECON,ioos:station:SCCF:11:1,2016-09-09T17:00:00Z,26.4679,-82.0631,1.81,24.65,1111122 
SCCF RECON,ioos:station:SCCF:11:1,2016-09-09T18:00:00Z,26.4679,-82.0631,1.76,24.33,1111122 
SCCF RECON,ioos:station:SCCF:11:1,2016-09-09T19:00:00Z,26.4679,-82.0631,1.726,24.14,1111122 
SCCF RECON,ioos:station:SCCF:11:1,2016-09-09T20:00:00Z,26.4679,-82.0631,1.742,22.17,1111122 
SCCF RECON,ioos:station:SCCF:11:1,2016-09-09T21:00:00Z,26.4679,-82.0631,1.84,20.18,1111122 
SCCF RECON,ioos:station:SCCF:11:1,2016-09-09T22:00:00Z,26.4679,-82.0631,1.93,20.36,1111122 
SCCF RECON,ioos:station:SCCF:11:1,2016-09-09T23:00:00Z,26.4679,-82.0631,1.98,23.37,1111122 
SCCF RECON,ioos:station:SCCF:11:1,2016-09-10T00:00:00Z,26.4679,-82.0631,2.01,23.47,1111122 
SCCF RECON,ioos:station:SCCF:11:1,2016-09-10T01:00:00Z,26.4679,-82.0631,2.03,24.24,1111122 
SCCF RECON,ioos:station:SCCF:11:1,2016-09-10T02:00:00Z,26.4679,-82.0631,2.04,24.48,1111122 
SCCF RECON,ioos:station:SCCF:11:1,2016-09-10T03:00:00Z,26.4679,-82.0631,2.03,24.69,1111122 
SCCF RECON,ioos:station:SCCF:11:1,2016-09-10T04:00:00Z,26.4679,-82.0631,2.01,24.88,1111122 
SCCF RECON,ioos:station:SCCF:11:1,2016-09-10T05:00:00Z,26.4679,-82.0631,2.0,24.85,1111122 
SCCF RECON,ioos:station:SCCF:11:1,2016-09-10T06:00:00Z,26.4679,-82.0631,1.96,24.67,1111122 
SCCF RECON,ioos:station:SCCF:11:1,2016-09-10T07:00:00Z,26.4679,-82.0631,1.93,24.66,1111122 
SCCF RECON,ioos:station:SCCF:11:1,2016-09-10T08:00:00Z,26.4679,-82.0631,1.944,24.69,1111122 
SCCF RECON,ioos:station:SCCF:11:1,2016-09-10T09:00:00Z,26.4679,-82.0631,2.01,23.87,1111122 
SCCF RECON,ioos:station:SCCF:11:1,2016-09-10T10:00:00Z,26.4679,-82.0631,2.101,23.65,1111122 
SCCF RECON,ioos:station:SCCF:11:1,2016-09-10T11:00:00Z,26.4679,-82.0631,2.16,24.8,1111122 
SCCF RECON,ioos:station:SCCF:11:1,2016-09-10T12:00:00Z,26.4679,-82.0631,2.18,25.11,1111122 
SCCF RECON,ioos:station:SCCF:11:1,2016-09-10T13:00:00Z,26.4679,-82.0631,2.17,25.58,1111122 
SCCF RECON,ioos:station:SCCF:11:1,2016-09-10T14:00:00Z,26.4679,-82.0631,2.161,26.73,1111122 
SCCF RECON,ioos:station:SCCF:11:1,2016-09-10T15:00:00Z,26.4679,-82.0631,2.12,24.26,1111122 
SCCF RECON,ioos:station:SCCF:11:1,2016-09-10T16:00:00Z,26.4679,-82.0631,2.037,24.28,1111122 
SCCF RECON,ioos:station:SCCF:11:1,2016-09-10T17:00:00Z,26.4679,-82.0631,1.96,24.7,1111122 
SCCF RECON,ioos:station:SCCF:11:1,2016-09-10T18:00:00Z,26.4679,-82.0631,1.89,24.11,1111122 
SCCF RECON,ioos:station:SCCF:11:1,2016-09-10T19:00:00Z,26.4679,-82.0631,1.808,24.28,1111122 
SCCF RECON,ioos:station:SCCF:11:1,2016-09-10T20:00:00Z,26.4679,-82.0631,1.74,24.26,1111122 
SCCF RECON,ioos:station:SCCF:11:1,2016-09-10T21:00:00Z,26.4679,-82.0631,1.732,23.94,1111122 
SCCF RECON,ioos:station:SCCF:11:1,2016-09-10T22:00:00Z,26.4679,-82.0631,1.841,25.55,1111122 
SCCF RECON,ioos:station:SCCF:11:1,2016-09-10T23:00:00Z,26.4679,-82.0631,1.95,26.13,1111122 
SCCF RECON,ioos:station:SCCF:11:1,2016-09-11T00:00:00Z,26.4679,-82.0631,2.01,25.45,1111122 
SCCF RECON,ioos:station:SCCF:11:1,2016-09-11T01:00:00Z,26.4679,-82.0631,2.033,25.22,1111122 
SCCF RECON,ioos:station:SCCF:11:1,2016-09-11T02:00:00Z,26.4679,-82.0631,2.09,25.47,1111122 
SCCF RECON,ioos:station:SCCF:11:1,2016-09-11T03:00:00Z,26.4679,-82.0631,2.12,26.7,1111122 
SCCF RECON,ioos:station:SCCF:11:1,2016-09-11T04:00:00Z,26.4679,-82.0631,2.119,27.11,1111122 
SCCF RECON,ioos:station:SCCF:11:1,2016-09-11T05:00:00Z,26.4679,-82.0631,2.08,27.6,1111122 
SCCF RECON,ioos:station:SCCF:11:1,2016-09-11T06:00:00Z,26.4679,-82.0631,2.03,25.74,1111122 
SCCF RECON,ioos:station:SCCF:11:1,2016-09-11T07:00:00Z,26.4679,-82.0631,2.0,26.38,1111122 
SCCF RECON,ioos:station:SCCF:11:1,2016-09-11T08:00:00Z,26.4679,-82.0631,2.01,26.68,1111122 
SCCF RECON,ioos:station:SCCF:11:1,2016-09-11T09:00:00Z,26.4679,-82.0631,2.03,26.65,1111122 
SCCF RECON,ioos:station:SCCF:11:1,2016-09-11T10:00:00Z,26.4679,-82.0631,2.08,25.27,1111122 
SCCF RECON,ioos:station:SCCF:11:1,2016-09-11T11:00:00Z,26.4679,-82.0631,2.17,26.8,1111122 
SCCF RECON,ioos:station:SCCF:11:1,2016-09-11T12:00:00Z,26.4679,-82.0631,2.22,27.67,1111122 
SCCF RECON,ioos:station:SCCF:11:1,2016-09-11T13:00:00Z,26.4679,-82.0631,2.24,27.42,1111122 
SCCF RECON,ioos:station:SCCF:11:1,2016-09-11T14:00:00Z,26.4679,-82.0631,2.233,28.42,1111122 
SCCF RECON,ioos:station:SCCF:11:1,2016-09-11T15:00:00Z,26.4679,-82.0631,2.2,26.51,1111122 
SCCF RECON,ioos:station:SCCF:11:1,2016-09-11T16:00:00Z,26.4679,-82.0631,2.12,24.87,1111122 
SCCF RECON,ioos:station:SCCF:11:1,2016-09-11T17:00:00Z,26.4679,-82.0631,2.04,24.87,1111122 
SCCF RECON,ioos:station:SCCF:11:1,2016-09-11T18:00:00Z,26.4679,-82.0631,1.94,24.74,1111122 